Westerly, RI

8:38 PM EDT on March 25, 2017 (GMT -0400)
Westerly State

Weather History for KWST - February, 2014

Change the Weather History Date:

Saturday, February 15, 2014

  Actual Average (KGON) Record (KGON)
Temperature  
Mean Temperature 30 °F -  
Max Temperature 35 °F 40 °F 58 °F (1967)
Min Temperature 24 °F 21 °F 0 °F (1987)
Degree Days  
Heating Degree Days 36    
Moisture  
Dew Point 26 °F    
Average Humidity 84    
Maximum Humidity 93    
Minimum Humidity 59    
Precipitation  
Precipitation 0.00 in - - ()
Sea Level Pressure  
Sea Level Pressure 29.63 in    
Wind  
Wind Speed 8 mph (North)    
Max Wind Speed 22 mph    
Max Gust Speed 30 mph    
Visibility 3 miles    
Events Fog , Snow    
Averages and records for this station are not official NWS values.
T = Trace of Precipitation, MM = Missing Value Source: NWS Daily Summary

Daily Weather History Graph

Daily Weather History Graph

Search for Another Location

Airport or City:

Trip Planner

Search our weather history database for the weather conditions in past years. The results will help you decide how hot, cold, wet, or windy it might be!

Date:

Astronomy

Feb. 15, 2014 Rise Set
Actual Time 6:42 AM EST 5:21 PM EST
Civil Twilight 6:13 AM EST 5:49 PM EST
Nautical Twilight 5:41 AM EST 6:21 PM EST
Astronomical Twilight 5:09 AM EST 6:53 PM EST
Moon 6:19 PM EST (2/15) 6:38 AM EST (2/15)
Length of Visible Light 11h 35m
Length of Day
10h 38m
Full, 100% of the Moon is Illuminated
Feb 15
Full
Feb 22
Last Quarter
Mar 1
New
Mar 8
First Quarter
Mar 16
Full

Hourly Weather History & Observations

Time (EST) Temp. Windchill Dew Point Humidity Pressure Visibility Wind Dir Wind Speed Gust Speed Precip Events Conditions
12:53 AM 32.0 °F 28.7 °F 23.0 °F 69% 29.78 in 10.0 mi Variable 3.5 mph - N/A   Clear
1:53 AM 30.9 °F - 21.9 °F 69% 29.80 in 10.0 mi Calm Calm - N/A   Clear
2:53 AM 27.0 °F - 21.0 °F 78% 29.81 in 9.0 mi Calm Calm - N/A   Clear
3:53 AM 26.1 °F - 21.9 °F 84% 29.82 in 9.0 mi Calm Calm - N/A   Partly Cloudy
4:53 AM 25.0 °F 20.7 °F 21.9 °F 88% 29.82 in 7.0 mi North 3.5 mph - N/A   Clear
5:53 AM 24.1 °F - 21.0 °F 88% 29.82 in 7.0 mi Calm Calm - N/A   Clear
6:53 AM 26.1 °F - 23.0 °F 88% 29.83 in 5.0 mi Calm Calm - N/A   Clear
7:53 AM 27.0 °F 19.5 °F 23.0 °F 85% 29.83 in 5.0 mi North 6.9 mph - N/A   Mostly Cloudy
8:53 AM 32.0 °F 26.4 °F 24.1 °F 73% 29.82 in 8.0 mi NE 5.8 mph - N/A   Overcast
9:53 AM 34.0 °F 28.0 °F 24.1 °F 67% 29.82 in 9.0 mi ENE 6.9 mph - N/A   Overcast
10:53 AM 35.1 °F 29.3 °F 23.0 °F 61% 29.80 in 9.0 mi ENE 6.9 mph - N/A   Overcast
11:53 AM 35.1 °F 29.3 °F 21.9 °F 59% 29.77 in 10.0 mi NE 6.9 mph - N/A   Overcast
12:43 PM 34.0 °F 24.6 °F 24.1 °F 67% 29.73 in 2.0 mi ENE 13.8 mph - 0.00 in Snow Light Snow
12:50 PM 33.8 °F 25.8 °F 26.6 °F 75% 29.72 in 1.0 mi ENE 10.4 mph - 0.00 in Snow Light Snow
12:53 PM 33.1 °F 26.1 °F 26.1 °F 75% 29.72 in 1.0 mi NE 8.1 mph - 0.00 in Snow Light Snow
1:18 PM 32.0 °F 23.6 °F 27.0 °F 82% 29.68 in 1.5 mi NNE 10.4 mph 17.3 mph 0.00 in Snow Light Snow
1:43 PM 30.9 °F 21.7 °F 28.0 °F 89% 29.66 in 0.8 mi NNE 11.5 mph - 0.00 in Snow Light Snow
1:53 PM 30.9 °F 21.7 °F 28.0 °F 89% 29.65 in 0.5 mi NNE 11.5 mph - 0.00 in Fog , Snow Snow
2:04 PM 30.9 °F 22.2 °F 28.9 °F 92% 29.63 in 0.5 mi NE 10.4 mph 17.3 mph 0.00 in Fog , Snow Snow
2:17 PM 30.9 °F 22.8 °F 28.9 °F 92% 29.63 in 0.5 mi NNE 9.2 mph 17.3 mph 0.00 in Fog , Snow Snow
2:43 PM 30.9 °F 21.7 °F 28.9 °F 92% 29.62 in 0.2 mi NNE 11.5 mph 18.4 mph 0.00 in Fog , Snow Snow
2:50 PM 30.2 °F 20.2 °F 28.4 °F 93% 29.62 in 0.2 mi NNE 12.7 mph - 0.00 in Fog , Snow Snow
2:53 PM 30.9 °F 22.8 °F 28.9 °F 92% 29.62 in 0.2 mi NNE 9.2 mph - 0.00 in Fog , Snow Snow
3:53 PM 30.9 °F 20.7 °F 28.9 °F 92% 29.57 in 0.2 mi North 13.8 mph 20.7 mph 0.00 in Fog , Snow Snow
4:53 PM 30.9 °F 21.2 °F 28.9 °F 92% 29.56 in 0.2 mi North 12.7 mph 24.2 mph 0.00 in Fog , Snow Heavy Snow
5:30 PM 30.9 °F 20.2 °F 28.9 °F 92% 29.54 in 0.5 mi North 15.0 mph 24.2 mph 0.00 in Fog , Snow Snow
5:38 PM 30.9 °F 20.7 °F 28.9 °F 92% 29.54 in 0.5 mi North 13.8 mph 24.2 mph 0.00 in Fog , Snow Snow
5:53 PM 30.9 °F 19.8 °F 28.9 °F 92% 29.52 in 0.5 mi North 16.1 mph 28.8 mph 0.00 in Fog , Snow Snow
6:48 PM 30.2 °F 18.1 °F 28.4 °F 93% 29.48 in 1.0 mi North 18.4 mph 26.5 mph 0.00 in Snow Light Snow
6:53 PM 30.9 °F 20.2 °F 28.9 °F 92% 29.49 in 1.0 mi North 15.0 mph 26.5 mph 0.00 in Snow Light Snow
7:01 PM 30.9 °F 19.1 °F 28.9 °F 92% 29.48 in 1.5 mi North 18.4 mph 27.6 mph 0.00 in Snow Light Snow
7:17 PM 30.9 °F 19.4 °F 28.0 °F 89% 29.48 in 2.5 mi North 17.3 mph 26.5 mph 0.00 in Snow Light Snow
7:30 PM 30.9 °F 19.1 °F 28.0 °F 89% 29.48 in 2.5 mi NNW 18.4 mph 25.3 mph 0.00 in Snow Light Snow
7:53 PM 30.9 °F 19.8 °F 28.0 °F 89% 29.47 in 1.5 mi NNW 16.1 mph 28.8 mph 0.00 in Snow Light Snow
8:53 PM 30.0 °F 16.9 °F 27.0 °F 88% 29.46 in 1.2 mi NNW 21.9 mph 29.9 mph 0.00 in Snow Light Snow
9:53 PM 30.0 °F 16.9 °F 27.0 °F 88% 29.49 in 1.8 mi NNW 21.9 mph 29.9 mph 0.00 in Snow Light Snow
10:53 PM 30.0 °F 18.7 °F 27.0 °F 88% 29.49 in 1.8 mi NNW 16.1 mph 26.5 mph 0.00 in Snow Light Snow
11:01 PM 30.9 °F 19.1 °F 27.0 °F 85% 29.48 in 2.0 mi NNW 18.4 mph 26.5 mph 0.00 in Snow Light Snow
11:17 PM 30.9 °F 20.7 °F 27.0 °F 85% 29.49 in 2.5 mi NNW 13.8 mph 23.0 mph 0.00 in Snow Light Snow
11:27 PM 30.9 °F 20.7 °F 27.0 °F 85% 29.49 in 3.0 mi NW 13.8 mph 27.6 mph 0.00 in Snow Light Snow
11:53 PM 30.9 °F 21.2 °F 26.1 °F 82% 29.49 in 6.0 mi NW 12.7 mph 25.3 mph 0.00 in   Haze